This is the latest recevied weather packets stored in our database for station/object WK1F-2. If no packets are shown the sender has not sent any weather packets the latest 1 day(s).
| Time | Temp. | Humidity | Pressure | Rain* | Wind** | Luminosity | Snow |
|---|---|---|---|---|---|---|---|
| 1778001144 | 24.44° C | 53% | 1017.1 hPa | 0 mm | 3.58 m/s, 87° | - | - |
| 1778000844 | 24.44° C | 54% | 1017 hPa | 0 mm | 4.47 m/s, 70° | - | - |
| 1778000544 | 25° C | 52% | 1017.1 hPa | 0 mm | 4.47 m/s, 148° | - | - |
| 1778000244 | 25° C | 53% | 1017.2 hPa | 0 mm | 1.79 m/s, 91° | - | - |
| 1777999944 | 24.44° C | 53% | 1017.3 hPa | 0 mm | 1.79 m/s, 77° | - | - |
| 1777999644 | 24.44° C | 53% | 1017.4 hPa | 0 mm | 0.89 m/s, 42° | - | - |
| 1777999344 | 24.44° C | 53% | 1017.5 hPa | 0 mm | 4.02 m/s, 114° | - | - |
| 1777999044 | 24.44° C | 53% | 1017.4 hPa | 0 mm | 2.68 m/s, 95° | - | - |
| 1777998744 | 24.44° C | 55% | 1017.5 hPa | 0 mm | 3.58 m/s, 97° | - | - |
| 1777998444 | 24.44° C | 53% | 1017.5 hPa | 0 mm | 2.24 m/s, 85° | - | - |
| 1777998144 | 24.44° C | 54% | 1017.5 hPa | 0 mm | 3.13 m/s, 87° | - | - |
| 1777997844 | 24.44° C | 52% | 1017.5 hPa | 0 mm | 3.13 m/s, 113° | - | - |
| 1777997544 | 24.44° C | 51% | 1017.5 hPa | 0 mm | 2.68 m/s, 73° | - | - |
| 1777997244 | 24.44° C | 52% | 1017.4 hPa | 0 mm | 3.13 m/s, 57° | - | - |
| 1777996944 | 24.44° C | 50% | 1017.5 hPa | 0 mm | 1.79 m/s, 52° | - | - |
| 1777996644 | 24.44° C | 52% | 1017.3 hPa | 0 mm | 0.89 m/s, 156° | - | - |
| 1777996344 | 24.44° C | 51% | 1017.5 hPa | 0 mm | 1.79 m/s, 108° | - | - |
| 1777996044 | 24.44° C | 53% | 1017.4 hPa | 0 mm | 0.89 m/s, 213° | - | - |
| 1777995744 | 24.44° C | 52% | 1017.4 hPa | 0 mm | 2.68 m/s, 105° | - | - |
| 1777995444 | 24.44° C | 52% | 1017.4 hPa | 0 mm | 3.13 m/s, 40° | - | - |
| 1777995144 | 24.44° C | 54% | 1017.4 hPa | 0 mm | 2.24 m/s, 199° | - | - |
| 1777994844 | 24.44° C | 54% | 1017.5 hPa | 0 mm | 1.34 m/s, 143° | - | - |
| 1777994544 | 24.44° C | 53% | 1017.5 hPa | 0 mm | 2.24 m/s, 220° | - | - |
| 1777994244 | 24.44° C | 53% | 1017.5 hPa | 0 mm | 3.13 m/s, 105° | - | - |
| 1777993944 | 24.44° C | 53% | 1017.4 hPa | 0 mm | 3.13 m/s, 94° | - | - |
* Rain latest hour (hover to see other rain measurements)
** Current wind speed in m/s (hover to see current wind gust speed)